UMKA 1 (RS40S)

Last updated on Wed Sep 17 2025 00:03:09 GMT+0000 (Coordinated Universal Time)

1 57172U 23091G 25259.55846237 .00006743 00000+0 34933-3 0 9994 2 57172 97.5487 314.4397 0013654 358.7177 1.4018 15.16441959122477
UTC large
Height (km)
Speed (km/s)
/
Latitude / Longitude
Inclination (degrees)
Orbital Period (minutes)
Azimuth
Elevation
Range (km)
Doppler Factor

Next 0 passes for location: London (51.5072 / 0.1276)

Sorry there are no passes over London.